Find Starlink 34113

NORAD ID: 64010 Int'l Des: 2025-101 Owner: SPXS Country: US Constellation: starlink operational
LEOCIRCULAR

当前视图

正在加载3D地球...

关于 Starlink 34113

正在加载描述...

即将过境

Passes for default location (London). Set your location on the main map for personalized predictions.

高度历史

Loading altitude history...

两行轨道根数

1 64010U 25101S 26145.72485630 .00016002 00000-0 58947-3 0 9998
2 64010 42.9982 283.1799 0001111 275.2693 84.8032 15.27595355 58830
Epoch: May 25, 2026 • Age: 29 hours

当前状态

高度 484.3 km
速度 7.63 km/s
星下点 30.77°N, 160.75°W
发射日期 May 14, 2025
运行时间 1 years
类型 internet

技术详情

分类 Payload
质量 575.00 kg
干质量 530.00 kg
总质量 575.00 kg
长度 0.30 m
直径 4.10 m
跨度 29.00 m
形状 Box + pan
制造商 SPXS
平台类型 Starlink V2MO
阶段状态 In Orbit
所有者/国家 SPXS/US

Most Searched